Weather History for FBFT - September, 2012

Change the Weather History Date:

Wednesday, September 12, 2012

  Actual Average Record
Temperature  
Mean Temperature 76 °F -  
Max Temperature 87 °F 85 °F 93 °F (1996)
Min Temperature 64 °F 57 °F 37 °F (1999)
Cooling Degree Days 10    
Growing Degree Days 26 (Base 50)    
Moisture  
Dew Point 52 °F    
Average Humidity 47    
Maximum Humidity 83    
Minimum Humidity 16    
Precipitation  
Precipitation 0.00 in - - ()
Sea Level Pressure  
Sea Level Pressure 30.17 in    
Wind  
Wind Speed 12 mph ()    
Max Wind Speed 17 mph    
Max Gust Speed -    
Visibility 6.1 miles    
Events      
Averages and records for this station are not official NWS values.
T = Trace of Precipitation, MM = Missing Value Source: Averaged Metar Reports

Daily Weather History Graph

Daily Weather History Graph

Search for Another Location

Airport or City:

Trip Planner

Search our weather history database for the weather conditions in past years. The results will help you decide how hot, cold, wet, or windy it might be!

Date:

Astronomy

Sep. 12, 2012 Rise Set
Actual Time 6:09 AM CAT 6:03 PM CAT
Civil Twilight 5:46 AM CAT 6:25 PM CAT
Nautical Twilight 5:21 AM CAT 6:51 PM CAT
Astronomical Twilight 4:55 AM CAT 7:17 PM CAT
Moon 3:11 AM CAT (9/12) 2:43 PM CAT (9/12)
Length of Visible Light 12h 39m
Length of Day
11h 54m
Waning Crescent, 15% of the Moon is Illuminated
Sep 12
Waning Crescent
Sep 16
New
Sep 22
First Quarter
Sep 30
Full
Oct 8
Last Quarter

Hourly Weather History & Observations

Time (CAT) Temp. Heat Index Dew Point Humidity Pressure Visibility Wind Dir Wind Speed Gust Speed Precip Events Conditions
12:00 AM 64.4 °F - 55.4 °F 73% 30.21 in - East 16.1 mph - N/A   Clear
1:00 AM 64.4 °F - 55.4 °F 73% 30.18 in - East 17.3 mph - N/A   Clear
3:00 AM 64.4 °F - 55.4 °F 73% 30.18 in - East 12.7 mph - N/A   Clear
6:00 AM 64.4 °F - 59.0 °F 83% 30.18 in 6.2 mi East 10.4 mph - N/A   Mostly Cloudy
7:00 AM 64.4 °F - 59.0 °F 83% 30.21 in 6.2 mi East 9.2 mph - N/A   Scattered Clouds
8:00 AM 67 °F - 58 °F 66%  in 6 mi East 12.7 mph - -   Partly Cloudy
8:00 AM 66.2 °F - 59.0 °F 78% 30.24 in 6.2 mi East 12.7 mph - N/A   Scattered Clouds
9:00 AM 69.8 °F - 57.2 °F 64% 30.24 in 6.2 mi East 15.0 mph - N/A   Scattered Clouds
10:00 AM 73.4 °F - 57.2 °F 57% 30.24 in 6.2 mi ENE 16.1 mph - N/A   Partly Cloudy
11:00 AM 77.0 °F - 55.4 °F 47% 30.21 in - East 15.0 mph - N/A   Clear
12:00 PM 80.6 °F 80.3 °F 53.6 °F 39% 30.18 in - East 12.7 mph - N/A   Clear
1:00 PM 84.2 °F - 50.0 °F 30% 30.15 in - East 11.5 mph - N/A   Clear
2:00 PM 86 °F - 47 °F 16%  in 6 mi East 12.7 mph - -  
2:00 PM 86.0 °F - 46.4 °F 25% 30.12 in - East 12.7 mph - N/A   Clear
3:00 PM 87.8 °F - 42.8 °F 21% 30.09 in - East 13.8 mph - N/A   Clear
4:00 PM 86.0 °F - 44.6 °F 23% 30.09 in - East 13.8 mph - N/A   Clear
5:00 PM 86.0 °F - 44.6 °F 23% 30.09 in - East 12.7 mph - N/A   Clear
6:00 PM 82.4 °F - 48.2 °F 30% 30.09 in - East 13.8 mph - N/A   Clear
7:00 PM 78.8 °F - 48.2 °F 34% 30.12 in - ESE 11.5 mph - N/A   Clear
8:00 PM 76 °F - 47 °F 26%  in 6 mi ESE 11.5 mph - -  
8:00 PM 77.0 °F - 48.2 °F 36% 30.15 in - ESE 11.5 mph - N/A   Clear
9:00 PM 75.2 °F - 48.2 °F 38% 30.18 in - East 11.5 mph - N/A   Clear
10:00 PM 73.4 °F - 48.2 °F 41% 30.18 in - East 10.4 mph - N/A   Clear
11:00 PM 71.6 °F - 50.0 °F 46% 30.18 in - East 6.9 mph - N/A   Clear